Location: Colossi of Memnon
(25.7167°N, 32.6167°E)
Time: 09:48:51
(UTC+00:00)

Envisat - Visible Passes

Search period start: 17 September 2021 00:00
Search period end: 27 September 2021 00:00
Orbit: 764 x 766 km, 98.2° (Epoch: 16 September)

Date Brightness Start Highest point End Pass type
(mag) Time Alt. Az. Time Alt. Az. Time Alt. Az.
17 Sep 4.4 02:22:16 10° NNE 02:27:00 39° E 02:31:43 10° SSE visible
18 Sep 5.9 01:47:07 10° ENE 01:50:02 15° E 01:52:55 10° SE visible
19 Sep 3.2 02:47:16 10° NNE 02:52:21 78° ESE 02:57:25 10° S visible
20 Sep 5.0 02:11:04 10° NE 02:15:28 30° E 02:19:51 10° SSE visible
21 Sep 6.1 01:37:04 10° ENE 01:38:27 11° E 01:39:49 10° ESE visible
22 Sep 3.7 02:35:51 10° NNE 02:40:51 58° E 02:45:50 10° S visible
23 Sep 5.4 02:00:00 10° NE 02:03:55 22° E 02:07:50 10° SSE visible
24 Sep 3.0 03:01:05 10° N 03:06:09 72° WNW 03:11:11 10° SSW visible
25 Sep 4.2 02:24:30 10° NNE 02:29:19 43° E 02:34:08 10° S visible
26 Sep 5.8 01:49:09 10° NE 01:52:22 17° E 01:55:33 10° SE visible
